Location: Zagreb
(45.8000°N, 16.0000°E)
Time: 19:58:51
(UTC+01:00)

CUTE-I - Pass Details

Date: 08 November 2020
Orbit: 811 x 824 km, 98.7° (Epoch: 01 December)

Event Time Altitude Azimuth Distance (km) Brightness Sun altitude
Rises 18:24:32 0° 199° (SSW) 3,319 ? -19.7°
Reaches altitude 10° 18:27:16 10° 213° (SSW) 2,394 ? -20.2°
Maximum altitude 18:31:33 25° 267° (W) 1,611 ? -20.9°
Drops below altitude 10° 18:35:51 10° 321° (NW) 2,413 ? -21.7°
Sets 18:38:39 0° 335° (NNW) 3,352 ? -22.2°
